User: anonymous   Login
Location: Congrier
(47.8099°N, 1.1170°W)
Time: 21:26:20
(UTC+00:00)
Language:

CZ-6A DEB - Orbit

View from above orbital plane
View from above orbital plane
View from above satellite
View from above satellite

Ground track
Ground track

The orbit data is extracted from the following two-line orbital elements,

1 55864U 22151ZL  24056.45516996  .00001661  00000-0  89019-3 0  9995
2 55864  98.8465  66.4745 0027625 197.3299 162.6934 14.14257635 51931
Epoch (UTC): 25 February 2024 10:55:26
Eccentricity: 0.0027625
inclination: 98.8465°
perigee height: 825 km
apogee height: 865 km
right ascension of ascending node: 66.4745°
argument of perigee: 197.3299°
revolutions per day: 14.14257635
mean anomaly at epoch: 162.6934°
orbit number at epoch: 5193

The dashed part of the orbit path shows where the satellite is in the earth's shadow,  

DLR